Location: Wismar
(53.8979°N, 11.4516°E)
Time: 18:45:19
(UTC+01:00)

ISS - Visible Passes

Search period start: 27 January 2021 00:00
Search period end: 06 February 2021 00:00
Orbit: 418 x 421 km, 51.6° (Epoch: 28 January)

Date Brightness Start Highest point End Pass type
(mag) Time Alt. Az. Time Alt. Az. Time Alt. Az.
27 Jan -3.2 18:00:35 10° WSW 18:03:53 52° S 18:06:14 17° E visible
27 Jan -1.9 19:37:12 10° W 19:39:13 31° WSW 19:39:13 31° WSW visible
28 Jan -3.4 18:49:53 10° W 18:53:14 58° S 18:53:50 48° SE visible
28 Jan -0.2 20:26:43 10° W 20:26:48 11° W 20:26:48 11° W visible
29 Jan -3.4 18:02:35 10° W 18:05:56 59° S 18:08:28 16° ESE visible
29 Jan -1.9 19:39:19 10° W 19:41:27 29° WSW 19:41:27 29° WSW visible
30 Jan -3.0 18:51:58 10° W 18:55:13 46° SSW 18:56:07 36° SSE visible
31 Jan -3.1 18:04:37 10° W 18:07:56 53° S 18:10:50 13° ESE visible
31 Jan -1.6 19:41:34 10° W 19:43:49 22° SW 19:43:49 22° SW visible
01 Feb -2.1 18:54:05 10° W 18:57:06 30° SSW 18:58:37 21° SSE visible
02 Feb -2.4 18:06:38 10° W 18:09:49 38° SSW 18:12:59 10° SE visible
02 Feb -0.9 19:44:24 10° WSW 19:45:58 13° SW 19:46:30 12° SSW visible
03 Feb -1.1 18:56:27 10° WSW 18:58:47 17° SW 19:01:07 10° S visible
04 Feb -1.4 18:08:48 10° W 18:11:34 23° SSW 18:14:19 10° SSE visible
